Regional Weather Roundup
Issued by NWS

Home | Current Version | Previous Version | Graphics & Text | Print | Product List | Glossary On
Versions: 1 2 3 4 5 6 7 8 9 10 11 12 13 14 15 16 17 18 19 20 21 22 23 24 25 26 27 28 29 30 31 32 33 34 35 36 37 38 39 40 41 42 43 44 45 46 47 48 49 50
000
ASUS43 KDMX 100403
RWRIA

WEATHER ROUNDUP FOR IOWA
NATIONAL WEATHER SERVICE DES MOINES IA
1000 PM CST TUE FEB 09 2016

NOTE: "FAIR" INDICATES FEW OR NO CLOUDS BELOW 12,000 FEET WITH NO
SIGNIFICANT WEATHER AND/OR OBSTRUCTIONS TO VISIBILITY.

* - THESE STATIONS ARE NOT NWS STATIONS...THUS NOT UNDER NWS
QUALITY CONTROL.  THEY ALSO DO NOT REPORT WEATHER SUCH
AS PRECIPITATION OR FOG.

IAZ001>003-012>014-020>022-031>034-043>046-100500-
   NORTHWEST IOWA

CITY           SKY/WX    TMP DP  RH WIND       PRES   REMARKS
CARROLL *      CLOUDY    19  12  73 NW16      30.17S WCI   5
CHEROKEE *     CLOUDY    21  12  68 NW6       30.18F WCI  14
DENISON *      CLEAR     14  10  85 CALM      30.18S
LE MARS *      CLOUDY    21  18  86 CALM      30.19F
ORANGE CITY *  CLOUDY    18  14  86 CALM      30.16F
SHELDON *      CLOUDY    19  14  79 NW7       30.15S WCI  10
SIOUX CITY     PTCLDY    21  15  78 S3        30.20F
SPENCER        CLOUDY    19  10  68 NW10      30.15F WCI   7
STORM LAKE *   CLOUDY    19  14  79 NW12      30.16S WCI   7
$$

IAZ055>058-069>071-079>083-090>094-100500-
   SOUTHWEST IOWA

CITY           SKY/WX    TMP DP  RH WIND       PRES   REMARKS
ATLANTIC *     CLOUDY    19  10  68 W10       30.21S WCI   8
AUDUBON *      CLOUDY    19  12  73 NW6       30.18F WCI  11
CLARINDA *     CLOUDY    19  14  79 NW7       30.25F WCI  10
COUNCIL BLFS * CLOUDY    23  16  74 W6        30.22F WCI  16
CRESTON *      CLEAR     18  10  73 NW12      30.19S WCI   5
HARLAN  *      PTCLDY    18  10  73 NW13      30.24S WCI   4
LAMONI         CLEAR     18  10  71 NW18      30.17F WCI   2
RED OAK *      CLOUDY    23  14  68 NW9       30.23F WCI  13
SHENANDOAH *   CLOUDY    23  18  80 NW7       30.25F WCI  15
$$

IAZ047>049-059>061-072>074-084-100500-
   CENTRAL IOWA

CITY           SKY/WX    TMP DP  RH WIND       PRES   REMARKS
AMES           CLEAR     14   6  70 NW14      30.17S WCI  -1
ANKENY *       CLEAR     14   7  73 NW7       30.19R WCI   4
BOONE *        CLEAR     14   5  67 NW12      30.15S WCI   0
CHARITON *     PTCLDY    16   9  73 NW17      30.17R WCI   0
DES MOINES     CLEAR     16   6  65 NW9       30.18S WCI   4
GRINNELL*      CLEAR     12   7  79 NW12      30.14S WCI  -2
KNOXVILLE *    PTCLDY    16   5  62 NW21G26   30.15S WCI  -2
MARSHALLTOWN   CLEAR      7   3  84 NW7       30.14S WCI  -5
NEWTON *       FLURRIES  14   7  73 NW15G21   30.15S WCI  -1
PELLA *        CLEAR     14   8  76 NW12      30.18S WCI   0
$$

IAZ004>006-015-016-023>025-035-036-100500-
   NORTH CENTRAL IOWA

CITY           SKY/WX    TMP DP  RH WIND       PRES   REMARKS
ALGONA *       CLEAR     10   5  79 NW7       30.14S WCI   0
CLARION *      CLEAR      9   3  78 NW13      30.15R WCI  -7
ESTHERVILLE    CLOUDY    15  10  80 NW15      30.13F WCI   0
FORT DODGE *   CLEAR     10   3  72 NW3       30.16F
MASON CITY     CLEAR      5   1  83 NW10      30.12F WCI -10
FOREST CITY *    N/A      9   5  85 NW9       30.12S WCI  -5
WEBSTER CITY * CLEAR      7   1  78 NW12      30.14S WCI  -9
IOWA FALLS *     N/A      9   5  85 NW15      30.14S WCI  -8
$$

IAZ007>011-017>019-026>030-037>042-050>054-066-100500-
   NORTHEAST IOWA

CITY           SKY/WX    TMP DP  RH WIND       PRES   REMARKS
CEDAR RAPIDS   CLEAR      9   4  80 NW13      30.10S WCI  -7
CHARLES CITY * CLOUDY     9   0  66 NW14      30.10S WCI  -8
CLINTON *      CLEAR     10   5  80 NW14      30.07R WCI  -6
DECORAH *      CLEAR      7  -4  61 NW5       30.05F WCI  -2
DUBUQUE        CLEAR      9   0  67 NW13      30.03S WCI  -7
MONTICELLO *   CLEAR     10   1  67 NW14      30.08S WCI  -5
OELWEIN *      PTCLDY     7  -2  66 NW15      30.09S WCI -11
WATERLOO       CLOUDY    10   0  63 NW16      30.12S WCI  -7
$$

IAZ064-065-067-068-078-100500-
   EAST CENTRAL IOWA

CITY           SKY/WX    TMP DP  RH WIND       PRES   REMARKS
DAVENPORT      CLEAR     12   2  64 NW16      30.08R WCI  -5
IOWA CITY      CLEAR     12   3  67 NW12      30.14S WCI  -2
MT. PLEASANT * CLEAR     16   7  67 NW14G22   30.13S WCI   1
MUSCATINE *    CLEAR     14   5  67 NW14      30.13S WCI  -1
QUAD CITIES    CLEAR     13   3  64 NW10      30.09R WCI   0
$$

IAZ062-063-075>077-085>089-095>099-100500-
   SOUTHEAST IOWA

CITY           SKY/WX    TMP DP  RH WIND       PRES   REMARKS
BURLINGTON     CLEAR     13   5  70 NW17      30.11S WCI  -4
FAIRFIELD *    CLEAR     14   5  67 NW15      30.14S WCI  -1
FORT MADISON * CLEAR     12   7  79 NW15      30.13S WCI  -4
KEOKUK *       CLOUDY    16   7  67 NW14      30.14S WCI   1
OSKALOOSA *      N/A     14   9  79 NW14      30.15S WCI  -1
OTTUMWA        CLEAR     14   8  77 NW17      30.15S WCI  -3
WASHINGTON *   CLEAR     12   5  73 NW16      30.14S WCI  -4
$$

ABBREVIATIONS USED IN REMARKS
   TC - TEMPERATURES IN CELSIUS
  WCI - WIND CHILL INDEX
   HX - HEAT INDEX
  VSB - VISIBILITY
$$




USA.gov is the U.S. government's official web portal to all federal, state and local government web resources and services.